Location: Saratoga Springs
(43.0831°N, 73.7850°W)
Time: 16:23:01
(UTC-04:00)

Tiros 1 despin weight - Pass Details

Date: 17 April 2024
Orbit: 578 x 620 km, 48.2° (Epoch: 29 May)

Event Time Altitude Azimuth Distance (km) Brightness Sun altitude
Rises 16:49:29 0° 273° (W) 2,853 ? 30.1°
Reaches altitude 10° 16:51:51 10° 280° (W) 1,958 ? 29.7°
Maximum altitude 16:56:11 45° 353° (N) 840 ? 28.9°
Drops below altitude 10° 17:00:33 10° 67° (ENE) 1,981 ? 28.1°
Sets 17:02:58 0° 74° (ENE) 2,891 ? 27.7°
